DW4152 Weather Reports


time (UTC)temp
C
wind
direction
speed
KPH
gust
KPH
rain 1hr
cm
rain 24hr
cm
rain mn
cm
humidity
%
barometer
mb
20260504231559 24 329 0.0 1.6 0.00 0.00 0.00 40 1012.4
20260504230059 25 329 0.0 3.2 0.00 0.00 0.00 39 1012.4
20260504224600 25 183 0.0 0.0 0.00 0.00 0.00 39 1012.4
20260504223058 25 277 0.0 0.0 0.00 0.00 0.00 37 1012.3
20260504221557 26 233 0.0 0.0 0.00 0.00 0.00 38 1012.3
20260504214558 26 254 0.0 0.0 0.00 0.00 0.00 37 1012.3
20260504213109 26 251 0.0 1.6 0.00 0.00 0.00 37 1012.3
20260504211556 26 253 0.0 0.0 0.00 0.00 0.00 38 1012.4
20260504210054 26 262 0.0 0.0 0.00 0.00 0.00 37 1012.3
20260504204601 27 285 0.0 0.0 0.00 0.00 0.00 36 1012.5
20260504203051 27 285 0.0 0.0 0.00 0.00 0.00 35 1012.6
20260504201550 27 246 0.0 0.0 0.00 0.00 0.00 35 1012.8
20260504200050 28 228 0.0 0.0 0.00 0.00 0.00 35 1012.9
20260504194547 27 248 0.0 0.0 0.00 0.00 0.00 34 1013.2
20260504193055 27 206 0.0 0.0 0.00 0.00 0.00 33 1013.5
20260504191542 27 228 0.0 0.0 0.00 0.00 0.00 35 1013.6
20260504190042 27 207 0.0 0.0 0.00 0.00 0.00 34 1013.9
20260504184542 27 213 0.0 0.0 0.00 0.00 0.00 34 1013.9
20260504183041 26 214 0.0 1.6 0.00 0.00 0.00 35 1014.0
20260504181536 26 244 0.0 0.0 0.00 0.00 0.00 35 1014.2
20260504180036 26 244 0.0 0.0 0.00 0.00 0.00 35 1014.2
20260504174528 25 168 0.0 0.0 0.00 0.00 0.00 35 1014.6
20260504173025 25 215 0.0 0.0 0.00 0.00 0.00 33 1014.6
20260504171522 25 184 0.0 1.6 0.00 0.00 0.00 34 1014.9
20260504100111 6 229 0.0 0.0 0.00 0.00 0.00 93 1016.6
20260504081546 6 229 0.0 0.0 0.00 0.00 0.00 91 1016.5
20260504044534 7 229 0.0 0.0 0.00 0.00 0.00 81 1016.7
20260504043037 8 229 0.0 0.0 0.00 0.00 0.00 80 1016.7
20260504041523 8 229 0.0 0.0 0.00 0.00 0.00 79 1016.6
20260504040023 8 229 0.0 0.0 0.00 0.00 0.00 80 1016.8
20260504034520 9 229 0.0 0.0 0.00 0.00 0.00 80 1016.8
20260504033019 9 229 0.0 0.0 0.00 0.00 0.00 79 1016.6
20260504031520 9 229 0.0 0.0 0.00 0.00 0.00 76 1016.7
20260504030019 10 229 0.0 0.0 0.00 0.00 0.00 74 1016.7
20260504024519 10 229 0.0 0.0 0.00 0.00 0.00 74 1016.5
20260504023018 10 229 0.0 0.0 0.00 0.00 0.00 78 1016.5
20260504021519 11 229 0.0 0.0 0.00 0.00 0.00 75 1016.4
20260504020017 11 229 0.0 0.0 0.00 0.00 0.00 74 1016.1
20260504014517 11 229 0.0 0.0 0.00 0.00 0.00 72 1016.1
20260504013019 11 229 0.0 0.0 0.00 0.00 0.00 69 1016.1
20260504011516 12 229 0.0 0.0 0.00 0.00 0.00 64 1016.1
20260504010014 12 229 0.0 0.0 0.00 0.00 0.00 63 1016.0
20260504004518 13 229 0.0 0.0 0.00 0.00 0.00 54 1015.8
20260504003013 13 229 0.0 0.0 0.00 0.00 0.00 52 1015.6
20260504001513 14 229 0.0 0.0 0.00 0.00 0.00 49 1015.5
20260504000013 15 229 0.0 0.0 0.00 0.00 0.00 46 1015.4
20260503234517 16 229 0.0 0.0 0.00 0.00 0.00 42 1015.4
20260503233011 16 229 0.0 1.6 0.00 0.00 0.00 39 1015.4